Time,TemperatureF,DewpointF,PressureIn,WindDirection,WindDirectionDegrees,WindSpeedMPH,WindSpeedGustMPH,Humidity,HourlyPrecipIn,Conditions,Clouds,dailyrainin,SolarRadiationWatts/m^2,SoftwareType,DateUTC
2013-01-29 00:00:00,30.4,29.3,29.99,South,172,0.0,0.0,96,0.00,,,0.00,0.0,meteohub,2013-01-29 05:00:00,
2013-01-29 00:03:00,30.6,29.5,29.99,South,172,0.0,0.0,96,0.00,,,0.00,0.0,meteohub,2013-01-29 05:03:00,
2013-01-29 00:04:00,30.4,29.3,29.99,South,172,0.0,0.0,96,0.00,,,0.00,0.0,meteohub,2013-01-29 05:04:00,
2013-01-29 00:06:00,30.6,29.5,29.99,South,172,0.0,0.0,96,0.00,,,0.00,0.0,meteohub,2013-01-29 05:06:00,
2013-01-29 00:11:00,30.6,29.5,30.00,South,172,0.0,0.0,96,0.00,,,0.00,0.0,meteohub,2013-01-29 05:11:00,
2013-01-29 00:16:00,30.6,29.5,30.00,South,172,0.0,0.0,96,0.00,,,0.00,0.0,meteohub,2013-01-29 05:16:00,
2013-01-29 00:21:00,30.6,29.5,29.99,South,172,0.0,0.0,96,0.00,,,0.00,0.0,meteohub,2013-01-29 05:21:00,
2013-01-29 00:27:00,30.6,29.5,30.00,South,172,0.0,0.0,96,0.00,,,0.00,0.0,meteohub,2013-01-29 05:27:00,
2013-01-29 00:32:00,30.6,29.5,30.00,South,172,0.0,0.0,96,0.00,,,0.00,0.0,meteohub,2013-01-29 05:32:00,
2013-01-29 00:37:00,30.6,29.5,30.00,South,172,0.0,0.0,96,0.00,,,0.00,0.0,meteohub,2013-01-29 05:37:00,
2013-01-29 00:42:00,30.6,29.5,30.00,South,172,0.0,0.0,96,0.00,,,0.00,0.0,meteohub,2013-01-29 05:42:00,
2013-01-29 00:47:00,30.6,29.5,30.00,South,172,0.0,0.0,96,0.00,,,0.00,0.0,meteohub,2013-01-29 05:47:00,
2013-01-29 00:52:00,30.6,29.5,30.00,South,172,0.0,0.0,96,0.00,,,0.00,0.0,meteohub,2013-01-29 05:52:00,
2013-01-29 00:57:00,30.6,29.5,30.00,South,172,0.0,0.0,96,0.00,,,0.00,0.0,meteohub,2013-01-29 05:57:00,
2013-01-29 01:02:00,30.6,29.5,30.01,South,172,0.0,0.0,96,0.00,,,0.00,0.0,meteohub,2013-01-29 06:02:00,
2013-01-29 01:07:00,30.7,29.7,30.01,South,172,0.0,0.0,96,0.00,,,0.00,0.0,meteohub,2013-01-29 06:07:00,
2013-01-29 01:12:00,30.7,29.7,30.01,South,172,0.0,0.0,96,0.00,,,0.00,0.0,meteohub,2013-01-29 06:12:00,
2013-01-29 01:17:00,30.7,29.7,30.01,South,172,0.0,0.0,96,0.00,,,0.00,0.0,meteohub,2013-01-29 06:17:00,
2013-01-29 01:22:00,30.7,29.7,30.01,South,172,0.0,0.0,96,0.00,,,0.00,0.0,meteohub,2013-01-29 06:22:00,
2013-01-29 01:27:00,30.7,29.7,30.01,South,172,0.0,0.0,96,0.00,,,0.00,0.0,meteohub,2013-01-29 06:27:00,
2013-01-29 01:32:00,30.7,29.7,30.02,South,172,0.0,0.0,96,0.00,,,0.00,0.0,meteohub,2013-01-29 06:32:00,
2013-01-29 01:37:00,30.7,29.7,30.02,South,172,0.0,0.0,96,0.00,,,0.00,0.0,meteohub,2013-01-29 06:37:00,
2013-01-29 01:42:00,30.9,29.8,30.02,South,172,0.0,0.0,96,0.00,,,0.00,0.0,meteohub,2013-01-29 06:42:00,
2013-01-29 01:47:00,30.9,29.8,30.02,South,172,0.0,0.0,96,0.00,,,0.00,0.0,meteohub,2013-01-29 06:47:00,
2013-01-29 01:52:00,30.9,29.8,30.02,South,172,0.0,0.0,96,0.00,,,0.00,0.0,meteohub,2013-01-29 06:52:00,
2013-01-29 01:57:00,30.9,29.8,30.02,South,172,0.0,0.0,96,0.00,,,0.00,0.0,meteohub,2013-01-29 06:57:00,
2013-01-29 02:02:00,30.9,29.8,30.03,South,172,0.0,0.0,96,0.00,,,0.00,0.0,meteohub,2013-01-29 07:02:00,
2013-01-29 02:07:00,31.1,30.0,30.03,South,172,0.0,0.0,96,0.00,,,0.00,0.0,meteohub,2013-01-29 07:07:00,
2013-01-29 02:12:00,31.3,30.2,30.02,South,172,0.0,0.0,96,0.00,,,0.00,0.0,meteohub,2013-01-29 07:12:00,
2013-01-29 02:17:00,31.3,30.2,30.02,South,172,0.0,0.0,96,0.00,,,0.00,0.0,meteohub,2013-01-29 07:17:00,
2013-01-29 02:22:00,31.3,30.2,30.03,South,172,0.0,0.0,96,0.00,,,0.00,0.0,meteohub,2013-01-29 07:22:00,
2013-01-29 02:27:00,31.3,30.2,30.03,South,172,0.0,0.0,96,0.00,,,0.00,0.0,meteohub,2013-01-29 07:27:00,
2013-01-29 02:32:00,31.3,30.2,30.03,South,172,0.0,0.0,96,0.00,,,0.00,0.0,meteohub,2013-01-29 07:32:00,
2013-01-29 02:37:00,31.3,30.2,30.03,South,172,0.0,0.0,96,0.00,,,0.00,0.0,meteohub,2013-01-29 07:37:00,
2013-01-29 02:42:00,31.3,30.2,30.03,South,172,0.0,0.0,96,0.00,,,0.00,0.0,meteohub,2013-01-29 07:42:00,
2013-01-29 02:47:00,31.3,30.2,30.03,South,172,0.0,0.0,96,0.00,,,0.00,0.0,meteohub,2013-01-29 07:47:00,
2013-01-29 02:52:00,31.5,30.4,30.03,South,172,0.0,0.0,96,0.00,,,0.00,0.0,meteohub,2013-01-29 07:52:00,
2013-01-29 02:57:00,31.5,30.4,30.03,South,172,0.0,0.0,96,0.00,,,0.00,0.0,meteohub,2013-01-29 07:57:00,
2013-01-29 03:02:00,31.3,30.2,30.04,South,172,0.0,0.0,96,0.00,,,0.00,0.0,meteohub,2013-01-29 08:02:00,
2013-01-29 03:07:00,31.3,30.2,30.04,South,172,0.0,0.0,96,0.00,,,0.00,0.0,meteohub,2013-01-29 08:07:00,
2013-01-29 03:12:00,31.3,30.2,30.04,South,172,0.0,0.0,96,0.00,,,0.00,0.0,meteohub,2013-01-29 08:12:00,
2013-01-29 03:17:00,31.3,30.2,30.04,South,172,0.0,0.0,96,0.00,,,0.00,0.0,meteohub,2013-01-29 08:17:00,
2013-01-29 03:22:00,31.3,30.2,30.04,South,172,0.0,0.0,96,0.00,,,0.00,0.0,meteohub,2013-01-29 08:22:00,
2013-01-29 03:27:00,31.3,30.2,30.04,South,172,0.0,0.0,96,0.00,,,0.00,0.0,meteohub,2013-01-29 08:27:00,
2013-01-29 03:32:00,31.3,30.2,30.04,South,172,0.0,1.0,96,0.00,,,0.00,0.0,meteohub,2013-01-29 08:32:00,
2013-01-29 03:37:00,31.3,30.2,30.04,South,172,0.0,1.0,96,0.00,,,0.00,0.0,meteohub,2013-01-29 08:37:00,
2013-01-29 03:42:00,31.3,30.2,30.04,South,172,0.0,1.0,96,0.00,,,0.00,0.0,meteohub,2013-01-29 08:42:00,
2013-01-29 03:47:00,31.3,30.2,30.04,South,172,0.0,1.0,96,0.00,,,0.00,0.0,meteohub,2013-01-29 08:47:00,
2013-01-29 03:52:00,31.1,30.0,30.05,ENE,67,1.0,0.0,96,0.00,,,0.00,0.0,meteohub,2013-01-29 08:52:00,
2013-01-29 03:57:00,31.1,30.0,30.05,East,88,0.0,3.0,96,0.00,,,0.00,0.0,meteohub,2013-01-29 08:57:00,
2013-01-29 04:02:00,31.3,30.2,30.05,East,88,0.0,3.0,96,0.00,,,0.00,0.0,meteohub,2013-01-29 09:02:00,
2013-01-29 04:07:00,31.1,30.0,30.05,East,88,0.0,3.0,96,0.00,,,0.00,0.0,meteohub,2013-01-29 09:07:00,
2013-01-29 04:12:00,31.1,30.0,30.05,East,88,0.0,2.0,96,0.00,,,0.00,0.0,meteohub,2013-01-29 09:12:00,
2013-01-29 04:17:00,31.1,30.0,30.05,East,88,0.0,0.0,96,0.00,,,0.00,0.0,meteohub,2013-01-29 09:17:00,
2013-01-29 04:22:00,31.3,30.2,30.05,East,88,0.0,0.0,96,0.00,,,0.00,0.0,meteohub,2013-01-29 09:22:00,
2013-01-29 04:27:00,31.1,30.0,30.05,East,88,0.0,1.0,96,0.00,,,0.00,0.0,meteohub,2013-01-29 09:27:00,
2013-01-29 04:32:00,31.1,30.0,30.06,East,88,0.0,1.0,96,0.00,,,0.00,0.0,meteohub,2013-01-29 09:32:00,
2013-01-29 04:37:00,30.9,29.8,30.06,East,88,0.0,1.0,96,0.00,,,0.00,0.0,meteohub,2013-01-29 09:37:00,
2013-01-29 04:42:00,30.9,29.8,30.07,East,88,0.0,0.0,96,0.00,,,0.00,0.0,meteohub,2013-01-29 09:42:00,
2013-01-29 04:47:00,30.9,29.8,30.07,East,88,0.0,0.0,96,0.00,,,0.00,0.0,meteohub,2013-01-29 09:47:00,
2013-01-29 04:52:00,31.1,30.0,30.08,East,88,0.0,0.0,96,0.00,,,0.00,0.0,meteohub,2013-01-29 09:52:00,
2013-01-29 04:57:00,31.1,30.4,30.08,East,88,0.0,0.0,97,0.00,,,0.00,0.0,meteohub,2013-01-29 09:57:00,
2013-01-29 05:02:00,31.3,30.6,30.08,East,88,0.0,0.0,97,0.00,,,0.00,0.0,meteohub,2013-01-29 10:02:00,
2013-01-29 05:07:00,31.3,30.2,30.09,East,88,0.0,0.0,96,0.00,,,0.00,0.0,meteohub,2013-01-29 10:07:00,
2013-01-29 05:12:00,31.3,30.6,30.08,East,88,0.0,0.0,97,0.00,,,0.00,0.0,meteohub,2013-01-29 10:12:00,
2013-01-29 05:17:00,31.3,30.2,30.09,East,88,0.0,0.0,96,0.00,,,0.00,0.0,meteohub,2013-01-29 10:17:00,
2013-01-29 05:22:00,31.3,30.2,30.09,East,88,0.0,1.0,96,0.00,,,0.00,0.0,meteohub,2013-01-29 10:22:00,
2013-01-29 05:27:00,31.3,30.2,30.09,East,88,0.0,1.0,96,0.00,,,0.00,0.0,meteohub,2013-01-29 10:27:00,
2013-01-29 05:32:00,31.3,30.2,30.09,East,88,0.0,1.0,96,0.00,,,0.00,0.0,meteohub,2013-01-29 10:32:00,
2013-01-29 05:37:00,31.3,30.2,30.09,East,88,0.0,0.0,96,0.00,,,0.00,0.0,meteohub,2013-01-29 10:37:00,
2013-01-29 05:42:00,31.3,30.2,30.09,East,88,0.0,0.0,96,0.00,,,0.00,0.0,meteohub,2013-01-29 10:42:00,
2013-01-29 05:47:00,31.3,30.2,30.10,East,88,0.0,0.0,96,0.00,,,0.00,0.0,meteohub,2013-01-29 10:47:00,
2013-01-29 05:52:00,31.3,30.6,30.10,East,88,0.0,0.0,97,0.00,,,0.00,0.0,meteohub,2013-01-29 10:52:00,
2013-01-29 05:57:00,31.3,30.6,30.10,East,88,0.0,0.0,97,0.00,,,0.00,0.0,meteohub,2013-01-29 10:57:00,
2013-01-29 06:02:00,31.3,30.6,30.10,East,88,0.0,0.0,97,0.00,,,0.00,0.0,meteohub,2013-01-29 11:02:00,
2013-01-29 06:07:00,31.3,30.6,30.10,East,88,0.0,0.0,97,0.00,,,0.00,0.0,meteohub,2013-01-29 11:07:00,
2013-01-29 06:12:00,31.3,30.2,30.10,East,88,0.0,0.0,96,0.00,,,0.00,0.0,meteohub,2013-01-29 11:12:00,
2013-01-29 06:17:00,31.3,30.2,30.10,East,88,0.0,0.0,96,0.00,,,0.00,0.0,meteohub,2013-01-29 11:17:00,
2013-01-29 06:22:00,31.3,30.2,30.10,East,88,0.0,0.0,96,0.00,,,0.00,0.0,meteohub,2013-01-29 11:22:00,
2013-01-29 06:27:00,31.3,30.2,30.11,East,88,0.0,0.0,96,0.00,,,0.00,0.0,meteohub,2013-01-29 11:27:00,
2013-01-29 06:32:00,31.3,30.2,30.11,East,88,0.0,0.0,96,0.00,,,0.00,0.0,meteohub,2013-01-29 11:32:00,
2013-01-29 06:37:00,31.3,30.6,30.12,SE,138,0.0,0.0,97,0.00,,,0.00,0.0,meteohub,2013-01-29 11:37:00,
2013-01-29 06:42:00,31.3,30.6,30.12,SE,138,0.0,1.0,97,0.00,,,0.00,0.0,meteohub,2013-01-29 11:42:00,
2013-01-29 06:47:00,31.5,30.7,30.12,SE,138,0.0,1.0,97,0.00,,,0.00,0.0,meteohub,2013-01-29 11:47:00,
2013-01-29 06:52:00,31.5,30.7,30.12,SE,138,0.0,0.0,97,0.00,,,0.00,0.0,meteohub,2013-01-29 11:52:00,
2013-01-29 06:57:00,31.5,30.7,30.11,SE,138,0.0,0.0,97,0.00,,,0.00,0.0,meteohub,2013-01-29 11:57:00,
2013-01-29 07:02:00,31.5,30.7,30.12,SE,138,0.0,0.0,97,0.00,,,0.00,0.0,meteohub,2013-01-29 12:02:00,
2013-01-29 07:07:00,31.5,30.7,30.13,SE,138,0.0,0.0,97,0.00,,,0.00,0.0,meteohub,2013-01-29 12:07:00,
2013-01-29 07:12:00,31.5,30.7,30.13,SE,138,0.0,0.0,97,0.00,,,0.00,0.0,meteohub,2013-01-29 12:12:00,
2013-01-29 07:17:00,31.5,30.7,30.13,SE,138,0.0,0.0,97,0.00,,,0.00,0.0,meteohub,2013-01-29 12:17:00,
2013-01-29 07:22:00,31.5,30.7,30.14,SE,138,0.0,0.0,97,0.00,,,0.00,0.0,meteohub,2013-01-29 12:22:00,
2013-01-29 07:27:00,31.5,30.7,30.14,SE,138,0.0,0.0,97,0.00,,,0.00,0.0,meteohub,2013-01-29 12:27:00,
2013-01-29 07:32:00,31.5,30.7,30.14,SE,138,0.0,0.0,97,0.00,,,0.00,5.0,meteohub,2013-01-29 12:32:00,
2013-01-29 07:37:00,31.5,30.7,30.14,SE,138,0.0,0.0,97,0.00,,,0.00,7.0,meteohub,2013-01-29 12:37:00,
2013-01-29 07:42:00,31.5,30.7,30.14,SE,138,0.0,0.0,97,0.00,,,0.00,11.0,meteohub,2013-01-29 12:42:00,
2013-01-29 07:47:00,31.5,30.7,30.14,SE,138,0.0,0.0,97,0.00,,,0.00,11.0,meteohub,2013-01-29 12:47:00,
2013-01-29 07:52:00,31.6,30.9,30.15,SE,138,0.0,0.0,97,0.00,,,0.00,11.0,meteohub,2013-01-29 12:52:00,
2013-01-29 07:57:00,31.6,30.9,30.15,SE,138,0.0,0.0,97,0.00,,,0.00,12.0,meteohub,2013-01-29 12:57:00,
2013-01-29 08:02:00,31.6,30.9,30.14,SE,138,0.0,0.0,97,0.00,,,0.00,19.0,meteohub,2013-01-29 13:02:00,
2013-01-29 08:07:00,31.8,31.1,30.14,SE,138,0.0,0.0,97,0.00,,,0.00,23.0,meteohub,2013-01-29 13:07:00,
2013-01-29 08:12:00,31.8,31.1,30.14,SE,138,0.0,0.0,97,0.00,,,0.00,23.0,meteohub,2013-01-29 13:12:00,
2013-01-29 08:17:00,31.8,31.1,30.14,SE,138,0.0,0.0,97,0.00,,,0.00,32.0,meteohub,2013-01-29 13:17:00,
2013-01-29 08:22:00,32.0,31.3,30.14,SE,138,0.0,0.0,97,0.00,,,0.00,32.0,meteohub,2013-01-29 13:22:00,
2013-01-29 08:27:00,32.0,31.3,30.14,SE,138,0.0,0.0,97,0.00,,,0.00,33.0,meteohub,2013-01-29 13:27:00,
2013-01-29 08:32:00,32.2,31.5,30.14,SE,138,0.0,0.0,97,0.00,,,0.00,35.0,meteohub,2013-01-29 13:32:00,
2013-01-29 08:37:00,32.4,31.6,30.14,SE,138,0.0,0.0,97,0.00,,,0.00,44.0,meteohub,2013-01-29 13:37:00,
2013-01-29 08:42:00,32.5,31.8,30.15,SE,138,0.0,0.0,97,0.00,,,0.00,51.0,meteohub,2013-01-29 13:42:00,
2013-01-29 08:47:00,32.5,31.8,30.15,SE,138,0.0,0.0,97,0.00,,,0.00,53.0,meteohub,2013-01-29 13:47:00,
2013-01-29 08:52:00,32.7,32.0,30.15,SE,138,0.0,0.0,97,0.00,,,0.00,62.0,meteohub,2013-01-29 13:52:00,
2013-01-29 08:57:00,32.9,32.2,30.15,SE,138,0.0,0.0,97,0.00,,,0.00,63.0,meteohub,2013-01-29 13:57:00,
2013-01-29 09:02:00,33.1,32.4,30.15,SE,138,0.0,0.0,97,0.00,,,0.00,58.0,meteohub,2013-01-29 14:02:00,
2013-01-29 09:07:00,33.1,32.4,30.16,SE,138,0.0,0.0,97,0.00,,,0.00,47.0,meteohub,2013-01-29 14:07:00,
2013-01-29 09:12:00,33.3,32.5,30.16,SE,138,0.0,0.0,97,0.00,,,0.00,58.0,meteohub,2013-01-29 14:12:00,
2013-01-29 09:17:00,33.3,32.2,30.15,SE,138,0.0,0.0,96,0.00,,,0.00,76.0,meteohub,2013-01-29 14:17:00,
2013-01-29 09:22:00,33.4,32.4,30.16,SE,138,0.0,0.0,96,0.00,,,0.00,81.0,meteohub,2013-01-29 14:22:00,
2013-01-29 09:27:00,33.4,32.4,30.16,SE,138,0.0,0.0,96,0.00,,,0.00,84.0,meteohub,2013-01-29 14:27:00,
2013-01-29 09:32:00,33.6,32.5,30.16,SE,138,0.0,0.0,96,0.00,,,0.00,83.0,meteohub,2013-01-29 14:32:00,
2013-01-29 09:37:00,33.8,32.7,30.16,SE,138,0.0,0.0,96,0.00,,,0.00,81.0,meteohub,2013-01-29 14:37:00,
2013-01-29 09:42:00,34.0,32.9,30.17,SE,138,0.0,0.0,96,0.00,,,0.00,90.0,meteohub,2013-01-29 14:42:00,
2013-01-29 09:47:00,34.2,32.9,30.16,SE,138,0.0,0.0,95,0.00,,,0.00,86.0,meteohub,2013-01-29 14:47:00,
2013-01-29 09:52:00,34.2,32.9,30.16,SE,138,0.0,0.0,95,0.00,,,0.00,116.0,meteohub,2013-01-29 14:52:00,
2013-01-29 09:57:00,34.2,32.9,30.16,SE,138,0.0,1.0,95,0.00,,,0.00,113.0,meteohub,2013-01-29 14:57:00,
2013-01-29 10:02:00,34.3,33.1,30.16,SE,138,0.0,1.0,95,0.00,,,0.00,111.0,meteohub,2013-01-29 15:02:00,
2013-01-29 10:07:00,34.3,32.7,30.17,SE,138,0.0,1.0,94,0.00,,,0.00,137.0,meteohub,2013-01-29 15:07:00,
2013-01-29 10:12:00,34.5,32.9,30.17,SE,138,0.0,0.0,94,0.00,,,0.00,125.0,meteohub,2013-01-29 15:12:00,
2013-01-29 10:17:00,34.5,32.9,30.17,SE,138,0.0,0.0,94,0.00,,,0.00,146.0,meteohub,2013-01-29 15:17:00,
2013-01-29 10:22:00,34.7,33.1,30.17,SE,138,0.0,0.0,94,0.00,,,0.00,144.0,meteohub,2013-01-29 15:22:00,
2013-01-29 10:27:00,34.9,33.3,30.17,SE,138,0.0,0.0,94,0.00,,,0.00,148.0,meteohub,2013-01-29 15:27:00,
2013-01-29 10:32:00,35.1,33.4,30.17,SE,138,0.0,1.0,94,0.00,,,0.00,127.0,meteohub,2013-01-29 15:32:00,
2013-01-29 10:37:00,35.2,33.4,30.17,SE,138,0.0,1.0,93,0.00,,,0.00,130.0,meteohub,2013-01-29 15:37:00,
2013-01-29 10:42:00,35.4,33.6,30.17,SE,138,0.0,0.0,93,0.00,,,0.00,155.0,meteohub,2013-01-29 15:42:00,
2013-01-29 10:47:00,35.4,33.3,30.17,SE,138,0.0,0.0,92,0.00,,,0.00,171.0,meteohub,2013-01-29 15:47:00,
2013-01-29 10:52:00,35.6,33.4,30.17,SE,138,0.0,0.0,92,0.00,,,0.00,179.0,meteohub,2013-01-29 15:52:00,
2013-01-29 10:57:00,35.8,33.6,30.17,SE,138,0.0,0.0,92,0.00,,,0.00,179.0,meteohub,2013-01-29 15:57:00,
2013-01-29 11:02:00,35.8,33.6,30.17,SE,138,0.0,0.0,92,0.00,,,0.00,181.0,meteohub,2013-01-29 16:02:00,
2013-01-29 11:07:00,36.1,34.0,30.17,SE,138,0.0,0.0,92,0.00,,,0.00,197.0,meteohub,2013-01-29 16:07:00,
2013-01-29 11:12:00,36.3,34.2,30.16,SE,138,0.0,0.0,92,0.00,,,0.00,181.0,meteohub,2013-01-29 16:12:00,
2013-01-29 11:17:00,36.3,34.0,30.16,SE,138,0.0,1.0,91,0.00,,,0.00,183.0,meteohub,2013-01-29 16:17:00,
2013-01-29 11:22:00,36.5,34.2,30.16,SE,138,0.0,1.0,91,0.00,,,0.00,178.0,meteohub,2013-01-29 16:22:00,
2013-01-29 11:27:00,36.9,34.2,30.15,SE,138,0.0,1.0,90,0.00,,,0.00,190.0,meteohub,2013-01-29 16:27:00,
2013-01-29 11:32:00,37.0,34.3,30.15,SE,138,0.0,0.0,90,0.00,,,0.00,176.0,meteohub,2013-01-29 16:32:00,
2013-01-29 11:37:00,37.2,34.5,30.15,SE,138,0.0,1.0,90,0.00,,,0.00,162.0,meteohub,2013-01-29 16:37:00,
2013-01-29 11:42:00,37.2,34.3,30.15,SE,138,0.0,1.0,89,0.00,,,0.00,146.0,meteohub,2013-01-29 16:42:00,
2013-01-29 11:47:00,37.2,34.3,30.14,SE,138,0.0,1.0,89,0.00,,,0.00,155.0,meteohub,2013-01-29 16:47:00,
2013-01-29 11:52:00,37.2,34.3,30.14,SE,138,0.0,1.0,89,0.00,,,0.00,153.0,meteohub,2013-01-29 16:52:00,
2013-01-29 11:57:00,37.6,34.3,30.14,SE,138,0.0,1.0,88,0.00,,,0.00,200.0,meteohub,2013-01-29 16:57:00,
2013-01-29 12:02:00,37.8,34.5,30.14,SE,138,0.0,1.0,88,0.00,,,0.00,200.0,meteohub,2013-01-29 17:02:00,
2013-01-29 12:07:00,37.9,34.3,30.14,SE,138,0.0,1.0,87,0.00,,,0.00,206.0,meteohub,2013-01-29 17:07:00,
2013-01-29 12:12:00,37.9,34.3,30.14,SE,138,0.0,0.0,87,0.00,,,0.00,178.0,meteohub,2013-01-29 17:12:00,
2013-01-29 12:17:00,38.1,34.5,30.14,SE,138,0.0,0.0,87,0.00,,,0.00,128.0,meteohub,2013-01-29 17:17:00,
2013-01-29 12:22:00,38.3,34.7,30.14,SE,138,0.0,0.0,87,0.00,,,0.00,118.0,meteohub,2013-01-29 17:22:00,
2013-01-29 12:27:00,38.5,34.9,30.14,SE,138,0.0,0.0,87,0.00,,,0.00,169.0,meteohub,2013-01-29 17:27:00,
2013-01-29 12:32:00,38.7,34.9,30.13,SE,138,0.0,0.0,86,0.00,,,0.00,221.0,meteohub,2013-01-29 17:32:00,
2013-01-29 12:37:00,38.8,35.1,30.13,SE,138,0.0,0.0,86,0.00,,,0.00,181.0,meteohub,2013-01-29 17:37:00,
2013-01-29 12:42:00,38.8,34.7,30.13,SE,138,0.0,1.0,85,0.00,,,0.00,113.0,meteohub,2013-01-29 17:42:00,
2013-01-29 12:47:00,38.8,34.7,30.13,SE,138,0.0,1.0,85,0.00,,,0.00,125.0,meteohub,2013-01-29 17:47:00,
2013-01-29 12:52:00,38.8,35.1,30.12,SE,138,0.0,1.0,86,0.00,,,0.00,188.0,meteohub,2013-01-29 17:52:00,
2013-01-29 12:57:00,39.0,35.2,30.12,SE,138,0.0,1.0,86,0.00,,,0.00,271.0,meteohub,2013-01-29 17:57:00,
2013-01-29 13:02:00,39.2,35.4,30.12,ESE,122,0.0,1.0,86,0.00,,,0.00,207.0,meteohub,2013-01-29 18:02:00,
2013-01-29 13:07:00,39.4,35.6,30.12,SSW,194,0.0,2.0,86,0.00,,,0.00,186.0,meteohub,2013-01-29 18:07:00,
2013-01-29 13:12:00,39.6,36.0,30.11,SSW,199,0.0,2.0,87,0.00,,,0.00,193.0,meteohub,2013-01-29 18:12:00,
2013-01-29 13:17:00,39.6,35.8,30.12,SSE,161,0.0,2.0,86,0.00,,,0.00,121.0,meteohub,2013-01-29 18:17:00,
2013-01-29 13:22:00,39.6,35.8,30.12,SSW,209,0.0,2.0,86,0.00,,,0.00,120.0,meteohub,2013-01-29 18:22:00,
2013-01-29 13:27:00,39.6,35.8,30.11,SSW,207,0.0,2.0,86,0.00,,,0.00,109.0,meteohub,2013-01-29 18:27:00,
2013-01-29 13:32:00,39.7,36.1,30.11,SW,225,0.0,2.0,87,0.00,,,0.00,95.0,meteohub,2013-01-29 18:32:00,
2013-01-29 13:37:00,39.7,36.1,30.11,SW,224,0.0,1.0,87,0.00,,,0.00,83.0,meteohub,2013-01-29 18:37:00,
2013-01-29 13:42:00,39.7,36.1,30.11,SW,225,0.0,1.0,87,0.00,,,0.00,69.0,meteohub,2013-01-29 18:42:00,
2013-01-29 13:47:00,39.7,36.0,30.11,SW,225,0.0,1.0,86,0.00,,,0.00,69.0,meteohub,2013-01-29 18:47:00,
2013-01-29 13:52:00,39.7,36.1,30.11,SW,225,0.0,1.0,87,0.00,,,0.00,65.0,meteohub,2013-01-29 18:52:00,
2013-01-29 13:57:00,39.6,36.0,30.11,SW,224,0.0,0.0,87,0.00,,,0.00,65.0,meteohub,2013-01-29 18:57:00,
2013-01-29 14:02:00,39.6,36.0,30.10,SW,224,0.0,1.0,87,0.00,,,0.00,60.0,meteohub,2013-01-29 19:02:00,
2013-01-29 14:07:00,39.6,36.0,30.10,SW,224,0.0,1.0,87,0.00,,,0.00,54.0,meteohub,2013-01-29 19:07:00,
2013-01-29 14:12:00,39.6,36.0,30.10,SW,224,0.0,1.0,87,0.00,,,0.00,56.0,meteohub,2013-01-29 19:12:00,
2013-01-29 14:17:00,39.6,36.3,30.11,SW,224,0.0,1.0,88,0.00,,,0.00,60.0,meteohub,2013-01-29 19:17:00,
2013-01-29 14:22:00,39.6,36.0,30.11,SW,224,0.0,0.0,87,0.00,,,0.00,56.0,meteohub,2013-01-29 19:22:00,
2013-01-29 14:27:00,39.4,35.8,30.12,SW,224,0.0,1.0,87,0.00,,,0.00,47.0,meteohub,2013-01-29 19:27:00,
2013-01-29 14:32:00,39.4,36.1,30.11,SW,224,0.0,1.0,88,0.00,,,0.00,46.0,meteohub,2013-01-29 19:32:00,
2013-01-29 14:37:00,39.4,36.1,30.11,SW,224,0.0,1.0,88,0.00,,,0.00,46.0,meteohub,2013-01-29 19:37:00,
2013-01-29 14:42:00,39.4,36.1,30.11,SW,224,0.0,0.0,88,0.00,,,0.00,51.0,meteohub,2013-01-29 19:42:00,
2013-01-29 14:47:00,39.4,36.1,30.11,SW,224,0.0,1.0,88,0.00,,,0.00,49.0,meteohub,2013-01-29 19:47:00,
2013-01-29 14:52:00,39.2,36.0,30.10,SW,224,0.0,1.0,88,0.00,,,0.00,46.0,meteohub,2013-01-29 19:52:00,
2013-01-29 14:57:00,39.2,36.0,30.10,SW,224,0.0,1.0,88,0.00,,,0.00,40.0,meteohub,2013-01-29 19:57:00,
2013-01-29 15:00:00,39.0,35.8,30.10,SW,224,0.0,0.0,88,0.00,,,0.00,39.0,meteohub,2013-01-29 20:00:00,
2013-01-29 15:05:00,39.0,35.8,30.11,SW,224,0.0,0.0,88,0.00,,,0.00,40.0,meteohub,2013-01-29 20:05:00,
2013-01-29 15:10:00,39.0,35.8,30.11,SW,224,0.0,0.0,88,0.00,,,0.00,39.0,meteohub,2013-01-29 20:10:00,
2013-01-29 15:15:00,38.8,35.6,30.11,SW,224,0.0,0.0,88,0.00,,,0.00,37.0,meteohub,2013-01-29 20:15:00,
2013-01-29 15:21:00,38.7,35.4,30.11,SW,224,0.0,0.0,88,0.00,,,0.00,37.0,meteohub,2013-01-29 20:21:00,
2013-01-29 15:26:00,38.7,35.8,30.12,SW,224,0.0,0.0,89,0.00,,,0.00,44.0,meteohub,2013-01-29 20:26:00,
2013-01-29 15:31:00,38.5,35.6,30.10,SW,224,0.0,0.0,89,0.00,,,0.00,62.0,meteohub,2013-01-29 20:31:00,
2013-01-29 15:36:00,38.7,35.8,30.10,SW,224,0.0,0.0,89,0.00,,,0.00,83.0,meteohub,2013-01-29 20:36:00,
2013-01-29 15:41:00,38.7,36.0,30.09,SW,224,0.0,0.0,90,0.00,,,0.00,84.0,meteohub,2013-01-29 20:41:00,
2013-01-29 15:46:00,38.8,36.1,30.10,SW,224,0.0,0.0,90,0.00,,,0.00,81.0,meteohub,2013-01-29 20:46:00,
2013-01-29 15:52:00,39.0,36.3,30.10,SW,224,0.0,0.0,90,0.00,,,0.00,72.0,meteohub,2013-01-29 20:52:00,
2013-01-29 15:57:00,39.4,36.5,30.11,SW,224,0.0,0.0,89,0.00,,,0.00,47.0,meteohub,2013-01-29 20:57:00,
2013-01-29 16:02:00,39.4,36.5,30.11,SW,224,0.0,0.0,89,0.00,,,0.00,32.0,meteohub,2013-01-29 21:02:00,
2013-01-29 16:07:00,39.4,36.5,30.11,SW,224,0.0,0.0,89,0.00,,,0.00,30.0,meteohub,2013-01-29 21:07:00,
2013-01-29 16:12:00,39.4,36.5,30.11,SW,224,0.0,0.0,89,0.00,,,0.00,26.0,meteohub,2013-01-29 21:12:00,
2013-01-29 16:17:00,39.4,36.5,30.11,SW,224,0.0,0.0,89,0.00,,,0.00,18.0,meteohub,2013-01-29 21:17:00,
2013-01-29 16:22:00,39.4,36.5,30.11,SW,224,0.0,0.0,89,0.00,,,0.00,16.0,meteohub,2013-01-29 21:22:00,
2013-01-29 16:27:00,39.2,36.3,30.11,SW,225,0.0,0.0,89,0.00,,,0.00,18.0,meteohub,2013-01-29 21:27:00,
2013-01-29 16:33:00,39.0,36.3,30.10,SSW,212,0.0,1.0,90,0.00,,,0.00,14.0,meteohub,2013-01-29 21:33:00,
2013-01-29 16:38:00,39.0,36.7,30.09,South,189,1.0,2.0,91,0.00,,,0.00,11.0,meteohub,2013-01-29 21:38:00,
2013-01-29 16:43:00,38.8,36.7,30.09,South,177,0.0,2.0,92,0.00,,,0.00,5.0,meteohub,2013-01-29 21:43:00,
2013-01-29 16:48:00,38.8,36.7,30.09,South,178,0.0,2.0,92,0.00,,,0.00,5.0,meteohub,2013-01-29 21:48:00,
2013-01-29 16:53:00,38.8,36.7,30.09,SSW,194,0.0,2.0,92,0.00,,,0.00,0.0,meteohub,2013-01-29 21:53:00,
2013-01-29 16:58:00,38.8,36.7,30.09,SSW,194,0.0,2.0,92,0.00,,,0.00,0.0,meteohub,2013-01-29 21:58:00,
2013-01-29 17:03:00,38.8,37.0,30.09,East,92,0.0,1.0,93,0.00,,,0.00,0.0,meteohub,2013-01-29 22:03:00,
2013-01-29 17:08:00,38.8,37.2,30.08,NNW,344,2.0,2.0,94,0.00,,,0.00,0.0,meteohub,2013-01-29 22:08:00,
2013-01-29 17:13:00,39.6,38.3,30.09,WNW,302,0.0,6.0,95,0.00,,,0.00,0.0,meteohub,2013-01-29 22:13:00,
2013-01-29 17:18:00,39.9,38.3,30.08,West,260,2.0,6.0,94,0.00,,,0.00,0.0,meteohub,2013-01-29 22:18:00,
2013-01-29 17:24:00,39.7,38.1,30.08,SE,142,5.0,6.0,94,0.00,,,0.00,0.0,meteohub,2013-01-29 22:24:00,
2013-01-29 17:29:00,39.7,38.1,30.08,SE,141,3.0,5.0,94,0.00,,,0.00,0.0,meteohub,2013-01-29 22:29:00,
2013-01-29 17:34:00,39.7,38.1,30.09,NNW,336,0.0,5.0,94,0.00,,,0.00,0.0,meteohub,2013-01-29 22:34:00,
2013-01-29 17:39:00,39.6,37.8,30.09,East,84,0.0,5.0,93,0.00,,,0.00,0.0,meteohub,2013-01-29 22:39:00,
2013-01-29 17:44:00,39.4,37.6,30.08,ENE,57,1.0,5.0,93,0.00,,,0.00,0.0,meteohub,2013-01-29 22:44:00,
2013-01-29 17:49:00,39.2,37.6,30.08,ENE,66,0.0,5.0,94,0.00,,,0.00,0.0,meteohub,2013-01-29 22:49:00,
2013-01-29 17:54:00,39.0,37.4,30.09,SE,140,0.0,3.0,94,0.00,,,0.00,0.0,meteohub,2013-01-29 22:54:00,
2013-01-29 17:59:00,39.0,37.4,30.08,North,355,1.0,3.0,94,0.00,,,0.00,0.0,meteohub,2013-01-29 22:59:00,
2013-01-29 18:04:00,38.8,37.6,30.08,West,277,4.0,4.0,95,0.00,,,0.00,0.0,meteohub,2013-01-29 23:04:00,
2013-01-29 18:09:00,38.8,37.6,30.08,West,279,1.0,3.0,95,0.00,,,0.00,0.0,meteohub,2013-01-29 23:09:00,
2013-01-29 18:15:00,38.8,37.6,30.08,ENE,61,2.0,5.0,95,0.00,,,0.00,0.0,meteohub,2013-01-29 23:15:00,
2013-01-29 18:20:00,38.8,37.6,30.08,SE,131,0.0,5.0,95,0.00,,,0.00,0.0,meteohub,2013-01-29 23:20:00,
2013-01-29 18:25:00,38.8,37.6,30.09,West,265,1.0,5.0,95,0.00,,,0.00,0.0,meteohub,2013-01-29 23:25:00,
2013-01-29 18:30:00,38.8,37.6,30.09,SSW,194,3.0,6.0,95,0.00,,,0.00,0.0,meteohub,2013-01-29 23:30:00,
2013-01-29 18:35:00,38.8,37.6,30.08,North,5,4.0,6.0,95,0.00,,,0.00,0.0,meteohub,2013-01-29 23:35:00,
2013-01-29 18:40:00,38.8,37.6,30.09,SW,231,1.0,7.0,95,0.00,,,0.00,0.0,meteohub,2013-01-29 23:40:00,
2013-01-29 18:45:00,38.8,37.6,30.09,SW,221,3.0,7.0,95,0.00,,,0.00,0.0,meteohub,2013-01-29 23:45:00,
2013-01-29 18:50:00,38.7,37.4,30.09,West,265,1.0,6.0,95,0.00,,,0.00,0.0,meteohub,2013-01-29 23:50:00,
2013-01-29 18:56:00,38.7,37.4,30.09,SW,217,0.0,6.0,95,0.00,,,0.00,0.0,meteohub,2013-01-29 23:56:00,
2013-01-29 19:01:00,38.7,37.4,30.09,NW,318,0.0,6.0,95,0.00,,,0.00,0.0,meteohub,2013-01-30 00:01:00,
2013-01-29 19:06:00,38.7,37.4,30.09,SW,223,1.0,7.0,95,0.00,,,0.00,0.0,meteohub,2013-01-30 00:06:00,
2013-01-29 19:11:00,38.5,37.2,30.10,South,188,1.0,7.0,95,0.00,,,0.00,0.0,meteohub,2013-01-30 00:11:00,
2013-01-29 19:16:00,38.5,37.4,30.10,South,174,1.0,7.0,96,0.00,,,0.00,0.0,meteohub,2013-01-30 00:16:00,
2013-01-29 19:21:00,38.3,37.2,30.10,South,172,0.0,5.0,96,0.00,,,0.00,0.0,meteohub,2013-01-30 00:21:00,
2013-01-29 19:26:00,38.3,37.2,30.10,SW,221,0.0,5.0,96,0.00,,,0.00,0.0,meteohub,2013-01-30 00:26:00,
2013-01-29 19:32:00,38.3,37.2,30.10,ESE,107,0.0,5.0,96,0.00,,,0.00,0.0,meteohub,2013-01-30 00:32:00,
2013-01-29 19:37:00,38.1,37.0,30.10,NW,317,0.0,5.0,96,0.00,,,0.00,0.0,meteohub,2013-01-30 00:37:00,
2013-01-29 19:42:00,38.1,37.0,30.10,ESE,123,0.0,3.0,96,0.00,,,0.00,0.0,meteohub,2013-01-30 00:42:00,
2013-01-29 19:47:00,38.1,37.0,30.10,NE,36,0.0,3.0,96,0.00,,,0.00,0.0,meteohub,2013-01-30 00:47:00,
2013-01-29 19:52:00,37.9,36.9,30.10,East,84,1.0,3.0,96,0.00,,,0.00,0.0,meteohub,2013-01-30 00:52:00,
2013-01-29 19:57:00,37.9,36.9,30.10,ESE,109,0.0,3.0,96,0.00,,,0.00,0.0,meteohub,2013-01-30 00:57:00,
2013-01-29 20:02:00,37.9,36.9,30.10,SE,136,0.0,4.0,96,0.00,,,0.00,0.0,meteohub,2013-01-30 01:02:00,
2013-01-29 20:07:00,37.9,36.9,30.10,North,355,0.0,4.0,96,0.00,,,0.00,0.0,meteohub,2013-01-30 01:07:00,
2013-01-29 20:12:00,37.8,36.7,30.09,North,0,0.0,4.0,96,0.00,,,0.00,0.0,meteohub,2013-01-30 01:12:00,
2013-01-29 20:17:00,37.6,36.5,30.09,North,0,0.0,3.0,96,0.00,,,0.00,0.0,meteohub,2013-01-30 01:17:00,
2013-01-29 20:22:00,37.6,36.5,30.10,North,0,0.0,3.0,96,0.00,,,0.00,0.0,meteohub,2013-01-30 01:22:00,
2013-01-29 20:27:00,37.2,36.1,30.09,North,0,0.0,1.0,96,0.00,,,0.00,0.0,meteohub,2013-01-30 01:27:00,
2013-01-29 20:32:00,36.9,35.8,30.10,North,0,0.0,1.0,96,0.00,,,0.00,0.0,meteohub,2013-01-30 01:32:00,
2013-01-29 20:37:00,36.9,35.8,30.10,North,0,1.0,1.0,96,0.00,,,0.00,0.0,meteohub,2013-01-30 01:37:00,
2013-01-29 20:42:00,36.7,35.6,30.09,North,0,0.0,1.0,96,0.00,,,0.00,0.0,meteohub,2013-01-30 01:42:00,
2013-01-29 20:47:00,36.7,36.0,30.10,North,0,1.0,1.0,97,0.00,,,0.00,0.0,meteohub,2013-01-30 01:47:00,
2013-01-29 20:52:00,36.7,36.0,30.09,North,0,0.0,1.0,97,0.00,,,0.00,0.0,meteohub,2013-01-30 01:52:00,
2013-01-29 20:57:00,36.5,35.4,30.10,North,0,0.0,1.0,96,0.00,,,0.00,0.0,meteohub,2013-01-30 01:57:00,
2013-01-29 21:02:00,36.5,35.8,30.09,North,0,0.0,1.0,97,0.00,,,0.00,0.0,meteohub,2013-01-30 02:02:00,
2013-01-29 21:07:00,36.5,35.8,30.09,North,0,2.0,2.0,97,0.00,,,0.00,0.0,meteohub,2013-01-30 02:07:00,
2013-01-29 21:12:00,36.7,36.0,30.09,North,0,0.0,2.0,97,0.00,,,0.00,0.0,meteohub,2013-01-30 02:12:00,
2013-01-29 21:17:00,37.0,36.3,30.09,WNW,282,1.0,2.0,97,0.00,,,0.00,0.0,meteohub,2013-01-30 02:17:00,
2013-01-29 21:22:00,37.6,36.9,30.09,WSW,248,0.0,4.0,97,0.00,,,0.00,0.0,meteohub,2013-01-30 02:22:00,
2013-01-29 21:27:00,37.6,37.0,30.09,NNE,21,0.0,4.0,98,0.00,,,0.00,0.0,meteohub,2013-01-30 02:27:00,
2013-01-29 21:32:00,37.6,36.9,30.08,East,86,1.0,4.0,97,0.00,,,0.00,0.0,meteohub,2013-01-30 02:32:00,
2013-01-29 21:37:00,37.6,36.9,30.09,ENE,78,1.0,7.0,97,0.00,,,0.00,0.0,meteohub,2013-01-30 02:37:00,
2013-01-29 21:42:00,37.8,37.0,30.09,NNE,22,1.0,7.0,97,0.00,,,0.00,0.0,meteohub,2013-01-30 02:42:00,
2013-01-29 21:47:00,37.8,37.0,30.09,East,84,0.0,7.0,97,0.00,,,0.00,0.0,meteohub,2013-01-30 02:47:00,
2013-01-29 21:52:00,37.6,36.9,30.09,East,84,0.0,4.0,97,0.00,,,0.00,0.0,meteohub,2013-01-30 02:52:00,
2013-01-29 21:57:00,37.6,36.9,30.09,South,172,0.0,4.0,97,0.00,,,0.00,0.0,meteohub,2013-01-30 02:57:00,
2013-01-29 22:02:00,37.6,36.9,30.09,East,97,5.0,5.0,97,0.00,,,0.00,0.0,meteohub,2013-01-30 03:02:00,
2013-01-29 22:07:00,37.6,36.9,30.09,SSW,211,2.0,8.0,97,0.00,,,0.00,0.0,meteohub,2013-01-30 03:07:00,
2013-01-29 22:12:00,37.9,37.2,30.08,WNW,290,3.0,8.0,97,0.00,,,0.00,0.0,meteohub,2013-01-30 03:12:00,
2013-01-29 22:17:00,37.8,37.0,30.07,West,269,3.0,8.0,97,0.00,,,0.00,0.0,meteohub,2013-01-30 03:17:00,
2013-01-29 22:22:00,37.9,37.4,30.07,North,355,0.0,5.0,98,0.00,,,0.00,0.0,meteohub,2013-01-30 03:22:00,
2013-01-29 22:27:00,37.9,37.2,30.07,ENE,65,1.0,5.0,97,0.00,,,0.00,0.0,meteohub,2013-01-30 03:27:00,
2013-01-29 22:32:00,38.1,37.6,30.06,NNW,330,2.0,5.0,98,0.00,,,0.00,0.0,meteohub,2013-01-30 03:32:00,
2013-01-29 22:37:00,38.3,37.8,30.06,SE,132,1.0,4.0,98,0.00,,,0.00,0.0,meteohub,2013-01-30 03:37:00,
2013-01-29 22:42:00,38.3,37.8,30.07,NNE,32,0.0,9.0,98,0.00,,,0.00,0.0,meteohub,2013-01-30 03:42:00,
2013-01-29 22:47:00,38.3,37.8,30.07,WNW,297,1.0,9.0,98,0.00,,,0.00,0.0,meteohub,2013-01-30 03:47:00,
2013-01-29 22:52:00,38.3,37.6,30.06,South,174,4.0,9.0,97,0.00,,,0.00,0.0,meteohub,2013-01-30 03:52:00,
2013-01-29 22:57:00,38.3,37.6,30.07,SW,227,0.0,7.0,97,0.00,,,0.00,0.0,meteohub,2013-01-30 03:57:00,
2013-01-29 23:02:00,38.3,37.6,30.06,ESE,117,2.0,7.0,97,0.00,,,0.00,0.0,meteohub,2013-01-30 04:02:00,
2013-01-29 23:07:00,38.5,37.8,30.07,ESE,119,3.0,9.0,97,0.00,,,0.00,0.0,meteohub,2013-01-30 04:07:00,
2013-01-29 23:12:00,38.5,37.8,30.06,East,97,0.0,9.0,97,0.00,,,0.00,0.0,meteohub,2013-01-30 04:12:00,
2013-01-29 23:17:00,38.5,37.8,30.06,NE,36,2.0,9.0,97,0.00,,,0.00,0.0,meteohub,2013-01-30 04:17:00,
2013-01-29 23:22:00,38.5,37.8,30.06,West,259,0.0,8.0,97,0.00,,,0.00,0.0,meteohub,2013-01-30 04:22:00,
2013-01-29 23:27:00,38.5,37.8,30.07,WSW,238,1.0,8.0,97,0.00,,,0.00,0.0,meteohub,2013-01-30 04:27:00,
2013-01-29 23:32:00,38.5,37.8,30.07,WSW,248,1.0,8.0,97,0.00,,,0.00,0.0,meteohub,2013-01-30 04:32:00,
2013-01-29 23:37:00,38.3,37.6,30.07,NE,51,3.0,7.0,97,0.00,,,0.00,0.0,meteohub,2013-01-30 04:37:00,
2013-01-29 23:42:00,38.5,37.8,30.06,West,265,2.0,7.0,97,0.00,,,0.00,0.0,meteohub,2013-01-30 04:42:00,
2013-01-29 23:47:00,38.5,37.8,30.05,SW,225,2.0,7.0,97,0.00,,,0.00,0.0,meteohub,2013-01-30 04:47:00,
2013-01-29 23:52:00,38.7,37.9,30.06,SSW,204,0.0,7.0,97,0.00,,,0.00,0.0,meteohub,2013-01-30 04:52:00,
2013-01-29 23:57:00,38.8,38.1,30.05,SW,227,2.0,8.0,97,0.00,,,0.00,0.0,meteohub,2013-01-30 04:57:00,